Location: Greenwich
(51.4790°N, 0.0090°E)
Time: 19:33:43
(UTC+01:00)

Tiros 1 - Pass Details

Date: 23 April 2024
Orbit: 624 x 657 km, 48.4° (Epoch: 22 May)

Event Time Altitude Azimuth Distance (km) Brightness Sun altitude
Exits shadow 04:02:36 17° 264° (W) 1,576 8.7 -14.5°
Maximum altitude 04:05:52 49° 195° (SSW) 809 7.3 -14.1°
Drops below altitude 10° 04:10:17 10° 120° (ESE) 1,993 9.9 -13.6°
Sets 04:12:38 0° 115° (ESE) 2,897 10.8 -13.3°
